Wind_Speed
26 25 24 24 23 22 22 21 21 21 20 20 20 19 19 19 19 19 19 19 19 19 18 18 18 18 17 17 17 18 18 19 18 19 19 19 19 19 19 20 20 20 19 19 18 17 17 18 18 18 19 19 20 20 21 21 21 21 22 23 25 26 27 27 28 26 24 22 21 19 18 18 19 20 21 20 19 19 20 19 19 19 19 18 16 15 16 17
28 27 26 26 25 25 24 24 24 23 23 23 22 22 22 22 22 21 21 21 21 20 20 20 20 20 20 20 20 20 21 21 21 21 21 21 21 22 22 22 22 22 21 20 19 19 19 19 20 20 20 20 21 22 22 22 22 23 25 26 27 28 28 28 28 26 22 20 20 20 19 20 22 23 23 21 20 21 20 19 18 19 20 20 19 18 18 19
30 29 29 28 28 27 27 26 26 26 25 25 25 24 24 24 24 23 23 22 22 22 22 21 21 22 22 22 22 22 22 23 23 23 23 23 24 24 24 23 23 23 23 22 21 21 21 21 21 22 22 22 22 23 24 24 24 26 27 28 29 29 30 29 27 24 20 19 20 21 21 23 26 26 24 22 21 22 21 20 19 20 20 20 22 21 21 21
32 31 31 30 30 29 29 29 28 28 27 27 27 26 26 26 25 25 24 24 24 23 23 23 23 24 24 24 24 24 24 25 26 25 25 25 25 25 24 24 24 24 24 23 23 22 22 22 23 23 23 23 24 25 26 26 26 28 29 30 30 29 29 27 24 21 20 20 20 22 23 26 28 28 26 25 23 23 22 21 20 20 21 21 23 23 24 24
33 33 33 32 32 31 31 31 30 30 29 29 28 28 27 27 26 26 26 25 25 25 25 25 26 25 25 25 26 26 27 28 28 27 27 27 26 25 25 24 24 24 24 24 24 24 23 24 24 24 25 26 27 28 29 29 29 30 31 31 29 27 26 25 22 21 21 22 23 24 25 27 29 29 28 27 26 24 23 23 23 22 22 23 24 24 25 24
35 35 34 34 33 33 32 32 32 31 31 30 30 29 29 28 28 28 28 28 28 28 28 27 27 27 28 28 28 28 29 30 30 28 28 27 26 25 25 25 25 25 25 25 25 25 25 26 26 27 28 29 30 31 32 32 31 30 30 29 26 24 23 23 22 23 24 24 26 27 27 29 30 29 29 29 28 25 23 23 25 25 26 26 26 26 25 25
36 36 35 35 35 34 34 33 33 32 32 31 31 31 30 30 30 30 30 30 30 30 30 30 30 30 31 31 30 30 30 31 30 28 28 27 26 26 25 26 26 26 26 27 27 28 28 29 30 30 31 32 32 33 33 32 30 28 27 26 23 22 21 22 23 25 26 27 28 29 29 31 30 28 29 31 28 26 25 25 26 28 30 29 29 28 26 25
38 37 37 36 36 36 35 35 35 34 34 33 33 33 32 32 32 32 32 32 32 32 32 33 33 33 33 32 31 29 29 31 30 28 28 27 27 27 27 27 27 28 29 30 31 31 32 33 33 33 33 33 32 31 31 29 27 24 23 23 22 22 22 23 24 27 28 29 31 30 29 31 31 27 29 31 28 26 27 27 28 30 32 32 31 30 28 26
40 40 39 39 38 38 38 37 37 36 36 35 35 35 35 35 34 35 34 35 35 35 35 35 34 34 32 31 29 28 29 30 29 29 29 29 29 29 30 30 31 32 33 33 34 35 35 35 35 34 32 30 28 28 27 26 25 23 23 22 23 24 24 26 28 30 30 31 32 31 29 31 31 28 29 30 27 25 26 28 29 31 32 32 33 33 31 29
42 42 41 41 40 40 40 39 39 38 38 38 37 37 37 37 37 37 37 37 37 36 36 34 33 32 31 30 28 28 30 30 31 31 31 32 32 33 33 34 35 35 36 36 36 36 35 34 33 31 30 27 26 26 26 26 25 25 25 25 26 27 28 31 32 32 32 32 33 32 29 31 30 28 29 30 27 25 26 28 31 32 32 32 33 34 33 31
44 43 43 43 42 42 42 41 41 40 40 40 39 39 39 39 39 38 38 37 36 36 35 34 33 32 32 31 31 31 33 33 34 34 35 35 36 37 37 37 38 37 37 36 35 34 33 32 31 30 29 27 27 28 28 28 28 28 28 28 29 30 31 34 34 33 33 33 34 33 30 29 29 28 29 29 28 26 27 30 33 33 33 34 34 34 34 33
44 44 44 44 43 43 43 43 42 42 41 41 40 40 39 39 38 38 37 37 36 36 35 35 35 35 35 34 34 35 36 36 37 38 38 38 39 39 39 38 37 36 35 34 32 32 32 31 31 31 31 30 30 31 31 31 31 31 31 31 31 33 33 34 35 33 33 34 34 34 31 28 28 29 29 29 29 28 29 31 34 35 35 35 35 36 35 34
44 44 43 43 43 43 42 42 42 41 41 40 40 40 39 39 39 39 38 38 38 38 38 38 38 38 38 37 37 38 38 38 38 39 39 39 38 37 37 36 35 34 34 33 33 33 34 34 34 34 34 34 33 34 34 33 32 33 34 33 33 34 34 34 35 34 33 34 34 35 33 29 27 29 30 30 30 30 31 32 34 35 35 35 35 36 36 35
46 46 45 45 44 44 43 43 42 42 42 41 41 41 41 41 41 41 41 41 41 41 41 41 41 41 40 39 38 39 38 37 37 37 36 36 36 36 35 35 35 34 35 35 36 36 37 37 37 37 37 36 36 35 35 34 34 34 35 35 35 35 33 33 34 35 34 35 35 36 36 31 27 28 29 30 32 32 32 32 33 34 34 34 34 34 34 34
47 47 47 47 46 46 46 45 45 45 44 44 44 44 44 44 44 44 44 43 43 43 43 43 42 42 40 37 36 36 35 35 35 35 35 36 36 37 37 37 37 38 38 38 39 39 39 39 39 39 38 37 37 36 36 36 36 36 37 37 37 37 34 33 33 35 35 36 36 36 37 33 29 28 28 30 32 33 33 32 33 33 32 32 32 31 32 32
47 47 47 47 47 47 47 47 47 47 46 46 47 47 46 46 46 45 44 44 43 42 42 41 40 40 38 35 35 35 35 36 37 37 37 38 39 39 40 40 40 41 41 40 41 40 40 40 40 40 39 38 38 37 38 38 37 37 39 39 38 38 37 34 33 34 36 37 37 37 37 34 32 30 29 30 32 32 33 33 32 31 30 30 29 29 29 29
48 47 46 46 45 46 46 46 46 46 46 46 46 46 46 45 44 43 42 41 41 40 40 39 38 39 38 37 37 38 38 39 39 40 40 40 41 41 41 41 41 42 41 41 41 41 41 41 41 41 40 39 38 38 40 39 38 38 40 40 39 39 39 37 33 34 36 38 38 37 36 34 33 32 32 33 33 31 31 32 31 31 30 29 28 28 28 28
49 48 48 47 46 45 45 45 44 44 44 44 44 44 43 43 42 42 41 41 40 40 41 41 41 42 41 40 40 41 41 41 41 41 41 41 41 41 41 41 42 42 42 42 42 42 42 42 42 42 40 38 38 39 41 40 39 40 41 40 41 40 39 38 35 36 38 38 38 37 36 35 34 34 35 36 35 33 32 31 31 29 28 29 29 28 28 29
50 50 49 48 48 47 47 46 46 45 45 45 45 44 44 44 44 44 43 44 44 44 44 44 44 44 43 42 42 42 42 41 41 41 41 41 41 41 42 42 42 42 42 43 43 44 44 44 44 42 39 37 39 40 41 41 41 41 41 41 41 40 39 37 37 38 39 38 37 36 36 36 36 37 37 37 36 35 33 31 30 28 27 27 28 28 29 29
50 50 50 50 50 49 49 49 48 48 48 48 48 48 47 47 47 47 47 47 46 46 46 45 44 44 43 42 42 43 42 42 42 41 40 41 41 41 42 42 42 43 43 43 44 45 45 45 45 42 39 39 41 42 42 42 42 42 42 42 42 41 40 38 39 40 40 39 37 37 37 37 37 38 37 35 34 33 32 31 30 28 27 26 25 27 28 28
51 51 51 51 51 51 51 50 50 50 50 50 50 49 49 49 49 49 47 47 46 46 45 44 44 43 42 42 43 43 43 43 41 40 40 41 42 42 43 43 43 44 44 45 47 46 46 47 45 42 41 42 43 43 43 43 43 43 43 43 42 42 41 40 41 41 41 41 39 39 39 38 38 37 35 32 31 30 30 30 30 29 29 27 26 26 27 28
52 51 51 51 52 51 51 51 51 50 50 50 50 50 49 49 49 48 47 47 45 45 45 44 43 42 41 42 43 43 44 43 41 41 42 43 43 44 45 46 46 46 46 47 47 47 48 48 45 44 45 45 45 45 45 45 44 44 43 43 42 41 40 41 41 41 41 41 40 40 40 39 38 37 33 31 30 30 29 28 29 29 29 29 29 27 27 27
53 53 53 52 52 52 52 51 51 50 50 50 50 50 49 49 49 48 48 47 46 44 44 44 43 42 41 42 43 45 45 45 44 44 44 45 46 47 48 48 47 47 47 47 46 47 48 47 45 45 46 47 46 46 46 45 45 44 44 44 42 39 40 41 40 40 40 40 40 40 40 39 38 37 35 32 32 32 30 28 29 30 30 31 31 31 30 29
56 55 55 54 54 53 52 52 51 51 51 50 50 50 50 49 49 49 48 49 47 44 44 44 44 43 44 45 46 47 47 47 46 46 46 47 48 49 49 48 48 47 46 45 46 47 46 44 43 45 45 45 45 44 44 43 43 43 42 41 40 39 40 40 39 39 40 40 40 39 40 39 37 37 35 33 33 34 33 32 32 33 33 33 33 34 34 34
59 58 57 56 55 54 54 53 52 52 51 51 51 50 50 50 50 50 49 50 49 45 44 45 46 47 47 48 48 47 48 48 48 48 48 49 50 50 49 48 48 46 44 44 45 45 41 40 42 43 42 42 42 40 39 40 41 39 38 38 38 39 39 39 39 39 40 39 38 38 39 38 36 35 34 33 34 36 37 37 37 37 37 37 36 37 38 39
61 60 59 58 57 56 55 55 53 53 52 52 51 51 51 51 51 51 50 52 53 48 46 46 47 49 50 49 48 48 49 50 49 50 51 51 51 50 49 47 46 44 43 43 43 41 38 38 40 39 38 38 38 37 37 38 38 36 35 36 38 38 38 39 39 39 39 38 37 37 37 38 38 37 35 36 38 39 40 41 41 41 41 40 41 41 42 42
64 62 61 59 58 58 57 56 55 54 54 54 53 53 53 53 53 52 52 54 56 53 50 50 49 51 51 50 49 49 50 51 51 52 52 50 49 47 46 45 43 42 42 41 40 39 37 37 38 37 37 36 35 36 37 37 36 34 34 36 37 37 37 38 38 39 39 38 39 37 35 38 42 41 40 42 42 42 43 43 43 42 42 43 43 44 45 45
66 64 62 61 60 59 59 58 57 57 57 57 57 56 56 55 55 54 52 55 58 57 55 53 52 52 51 51 51 50 51 52 52 50 47 45 44 43 43 42 41 41 40 39 38 38 37 38 38 38 37 36 36 37 37 36 35 34 33 35 35 36 37 37 38 38 38 39 41 39 36 41 47 47 48 49 47 46 47 46 46 45 46 46 46 46 47 47
66 65 64 62 61 61 61 60 60 59 59 59 59 59 58 57 56 55 53 55 59 60 58 56 54 54 52 52 52 52 53 52 49 46 42 41 40 40 40 40 40 40 39 38 38 37 38 38 38 38 36 36 37 37 36 35 35 33 33 34 35 36 37 37 38 38 39 42 44 41 40 46 50 51 53 53 52 52 52 51 51 51 51 51 51 50 50 50
64 64 64 63 63 62 62 62 61 61 61 61 61 61 60 59 57 54 55 57 60 60 59 57 56 56 55 54 54 53 51 48 45 43 42 41 40 40 40 40 40 40 39 39 38 38 39 38 38 36 35 35 36 35 35 35 34 34 34 35 36 37 38 39 40 40 42 46 47 45 45 49 53 54 54 55 54 54 54 53 53 54 53 53 53 53 52 52
61 63 64 64 64 64 64 63 63 62 62 62 62 62 61 60 57 56 58 59 59 59 59 59 58 57 55 53 52 50 47 45 43 42 42 41 40 39 39 39 40 39 39 38 37 37 38 37 36 34 34 34 34 34 35 35 35 35 35 36 38 40 41 42 43 44 46 49 49 49 50 53 55 54 54 55 55 54 53 53 53 53 54 53 53 54 53 53
57 60 62 62 63 64 64 62 61 61 60 60 61 61 60 60 59 59 59 59 58 60 60 59 58 56 53 50 48 46 45 44 43 42 42 41 41 39 39 39 39 38 38 36 35 35 36 35 34 34 34 34 35 35 35 36 36 37 38 39 41 43 45 46 47 47 49 50 50 52 53 55 55 54 53 53 53 53 53 53 53 53 53 53 53 54 54 54
49 50 52 52 54 57 57 55 56 56 56 56 58 59 59 60 59 56 57 58 59 60 59 57 56 54 52 49 46 46 45 44 44 43 43 41 40 39 39 39 38 37 37 37 36 36 35 34 34 35 36 36 36 36 37 38 39 40 41 42 44 46 48 49 49 50 51 52 52 54 55 56 55 54 53 53 53 54 54 53 53 53 53 53 54 54 54 54
44 45 47 47 48 50 50 50 51 50 50 52 53 55 55 54 52 50 51 53 53 55 55 54 53 52 50 47 46 46 45 44 44 44 43 42 40 39 39 38 38 39 39 39 38 37 36 36 35 36 37 38 39 39 39 40 42 43 44 46 48 48 49 50 52 54 55 54 54 55 56 56 55 55 55 55 55 54 53 53 53 53 53 54 54 55 55 55
47 48 49 50 50 50 50 52 51 49 49 51 53 55 52 48 47 47 47 47 48 51 52 51 51 50 49 47 47 46 45 45 44 44 44 43 42 41 39 39 39 39 39 38 38 38 38 38 37 37 38 39 41 42 43 44 45 47 48 49 51 50 50 52 55 56 56 56 56 56 57 56 54 54 55 55 55 55 54 54 53 53 54 54 54 55 55 56
50 51 52 53 53 52 51 52 51 50 53 54 55 56 51 47 47 47 46 45 46 48 50 49 49 48 48 48 46 45 44 44 44 44 44 43 42 41 40 39 39 38 37 37 38 40 42 43 42 41 41 42 43 44 45 46 48 50 51 50 50 50 51 54 55 55 55 56 57 56 56 56 54 54 54 55 55 55 54 54 54 54 53 54 54 55 56 56
52 53 54 54 53 53 52 50 50 52 56 58 55 51 48 47 46 45 45 45 45 47 48 49 49 48 47 46 45 43 43 43 43 43 42 41 42 41 39 38 39 39 38 38 40 42 45 47 47 47 47 46 46 46 47 48 49 50 50 49 49 50 52 53 54 54 54 57 57 55 55 55 54 54 55 54 55 55 55 55 54 54 54 55 55 56 57 57
50 53 54 53 52 52 52 52 53 56 61 63 57 48 46 47 47 47 48 48 48 48 49 50 49 47 46 45 44 43 42 43 43 42 42 42 43 43 41 40 40 40 39 40 42 44 46 48 49 50 50 49 49 49 49 49 48 47 47 48 49 50 52 52 53 54 55 57 57 55 54 55 56 56 55 55 55 55 56 55 55 55 56 56 57 57 57 57
48 49 51 53 52 52 52 53 54 56 60 63 60 54 51 51 51 52 53 50 48 48 48 48 47 46 46 46 45 44 44 44 44 44 45 45 45 45 44 43 42 41 41 42 45 47 49 51 53 53 52 51 51 51 49 47 46 46 47 49 49 50 51 52 53 54 55 57 58 57 56 55 55 56 56 56 56 56 57 57 56 57 58 59 59 59 59 60
49 49 48 49 50 52 52 51 50 52 54 54 55 56 56 55 55 54 52 50 47 47 48 48 47 47 48 47 47 46 46 46 46 46 46 47 47 47 46 45 45 44 45 46 47 49 51 53 54 54 53 51 50 49 48 47 47 48 49 49 49 50 51 52 54 54 55 58 58 59 59 57 55 58 60 59 57 58 58 58 58 59 59 60 60 60 61 62
49 50 48 47 48 50 51 52 52 52 52 50 51 54 55 54 53 51 50 50 50 51 51 51 50 50 50 50 49 48 48 48 48 48 49 50 49 49 48 48 48 48 48 48 48 48 49 50 50 51 52 51 49 49 48 49 49 49 50 50 50 51 52 54 56 55 55 58 59 60 62 59 56 59 62 61 60 59 59 58 59 60 61 61 60 61 62 62
50 50 49 47 49 51 53 55 56 57 56 53 53 54 55 54 52 51 51 51 52 52 52 51 51 50 50 50 49 49 49 49 49 50 51 50 49 49 49 49 49 48 48 47 47 47 47 48 49 50 50 50 51 51 51 51 51 51 52 51 51 53 53 55 58 57 57 60 60 62 65 62 58 59 62 62 62 60 59 59 60 61 60 60 61 62 62 62
48 49 49 48 49 52 54 57 58 58 57 55 55 57 57 57 56 55 55 54 53 52 51 50 49 48 48 48 48 48 49 50 50 50 50 49 49 48 48 48 48 48 47 47 47 47 47 49 50 50 50 51 53 53 53 53 53 53 53 51 51 53 54 55 58 59 60 62 62 63 67 65 61 60 60 61 61 60 60 60 61 61 60 61 63 63 63 62
48 50 51 51 51 51 52 54 55 55 53 54 56 57 57 58 58 57 56 54 53 51 50 50 49 49 49 49 50 50 50 51 51 50 49 49 49 49 49 48 47 47 47 47 47 48 49 51 52 52 53 54 54 54 54 54 54 54 53 52 53 54 55 57 59 61 63 64 63 65 68 66 63 61 60 61 61 61 62 63 62 62 62 63 63 62 61 61
54 54 54 54 54 54 53 52 53 52 53 55 56 56 55 56 57 56 55 53 53 53 53 53 52 52 52 52 53 53 53 52 51 50 50 50 49 49 48 47 46 46 47 48 49 50 51 52 53 54 56 56 56 56 56 54 54 55 56 56 56 57 58 59 60 63 65 66 65 66 68 67 63 62 62 62 62 62 64 64 63 64 62 58 56 56 57 59
58 59 58 58 57 56 55 54 55 55 55 56 57 57 56 56 56 56 56 56 56 57 56 56 55 55 55 55 54 54 52 50 49 50 50 49 48 47 46 46 46 47 48 50 51 52 53 54 55 56 58 58 57 57 57 57 57 58 58 58 58 59 60 61 63 66 67 67 68 67 68 67 64 63 63 63 62 63 63 62 63 63 61 58 57 58 60 62
61 61 60 60 60 59 58 57 57 57 57 58 59 59 59 59 59 60 60 60 60 59 58 58 58 57 56 54 52 50 49 48 48 49 49 48 47 46 46 47 47 48 49 51 53 54 55 57 57 58 59 59 59 59 59 60 60 60 60 59 59 60 61 62 66 68 67 69 70 67 66 67 64 62 63 63 62 62 61 61 62 62 62 63 63 64 64 65
64 64 64 64 63 61 60 60 60 61 62 62 63 63 63 63 63 63 63 62 61 59 59 59 57 55 53 51 50 49 48 49 50 50 49 48 47 48 48 49 49 50 51 53 54 55 57 59 59 60 61 61 61 61 61 62 63 62 61 60 60 62 63 64 67 68 68 69 69 66 65 66 63 60 61 60 60 61 62 63 63 63 63 64 64 64 64 65
66 67 68 69 68 66 65 65 65 66 67 67 67 66 66 66 65 64 62 61 59 57 57 56 54 52 51 51 51 51 51 51 51 51 49 49 50 50 51 51 51 52 53 55 56 57 59 61 60 61 62 63 63 63 64 64 64 64 62 60 60 63 65 66 67 66 66 67 66 64 65 65 62 59 58 58 59 62 62 62 62 62 62 62 62 62 62 62
69 68 69 69 70 69 68 67 67 67 67 68 68 67 66 65 64 61 59 58 57 56 56 55 53 52 53 53 53 53 52 52 52 51 51 52 53 52 53 53 54 54 55 57 58 59 61 62 62 62 63 64 64 64 65 65 65 65 62 60 62 65 65 64 63 63 64 65 63 62 64 64 60 57 57 58 61 62 61 60 60 61 61 61 60 60 60 61
72 71 71 70 69 69 68 67 66 66 65 66 66 64 62 61 60 58 58 57 57 56 56 55 53 53 54 54 54 53 52 53 54 53 53 54 54 54 55 56 56 57 58 58 59 60 61 62 63 63 64 65 64 64 65 65 65 65 63 62 63 64 61 60 61 61 62 62 61 62 64 62 57 56 59 60 60 60 59 60 60 60 60 60 59 60 60 61
71 69 68 67 67 68 67 65 65 64 64 63 61 60 59 58 58 58 59 58 57 56 55 54 53 54 54 54 54 53 54 55 55 55 56 57 57 57 57 57 57 58 58 59 60 60 61 62 62 63 65 65 63 64 65 64 66 67 64 61 60 59 58 58 60 60 59 60 62 63 63 60 59 59 60 58 57 58 59 59 59 59 59 59 60 60 61 63
Wind_Direction
221 223 224 226 228 230 232 233 235 236 237 238 240 242 243 245 246 247 248 249 250 251 253 254 256 258 261 264 267 270 272 275 277 279 281 282 284 286 288 289 289 288 286 285 283 280 279 279 280 280 281 282 283 284 285 286 288 290 292 292 292 294 295 298 300 302 301 299 295 293 295 298 301 305 308 311 310 305 303 305 304 301 300 302 300 296 292 289
225 226 228 230 232 234 235 237 238 239 240 242 243 245 246 248 248 249 249 250 251 252 253 255 257 259 262 265 267 270 271 273 275 277 279 281 283 285 285 286 286 284 283 281 279 278 277 278 279 279 280 282 283 284 285 287 289 290 291 291 292 293 295 296 298 299 298 295 293 294 298 301 302 304 308 312 309 305 305 303 300 297 297 298 297 294 290 288
228 229 231 233 235 236 238 239 240 242 243 244 245 247 248 249 249 250 250 250 251 252 254 256 258 261 263 266 268 271 273 274 276 277 280 282 283 284 284 284 282 281 280 279 278 277 277 278 279 279 280 281 282 283 284 286 289 290 291 291 292 294 295 295 296 295 293 291 292 296 301 303 303 304 307 310 307 304 305 302 299 295 293 294 294 293 291 290
230 231 233 234 236 238 239 240 242 243 244 245 246 247 248 248 249 249 250 251 252 253 255 257 259 262 264 267 270 273 276 277 278 279 281 282 282 282 282 281 280 279 279 278 278 278 278 279 279 279 281 282 283 284 285 287 289 290 291 291 293 294 294 294 293 291 290 289 292 297 302 303 303 304 307 308 305 304 304 300 295 290 289 289 289 291 292 293
231 232 234 235 236 238 239 240 242 243 244 245 246 246 247 248 249 250 251 252 253 255 257 259 261 263 266 269 272 275 277 278 278 280 281 280 281 280 280 279 278 278 278 278 278 278 279 279 279 280 282 284 285 286 288 289 290 291 292 292 293 293 291 291 290 288 287 289 293 298 301 302 302 304 307 306 303 303 302 299 295 289 285 284 284 288 291 293
232 233 234 235 236 237 238 239 241 242 243 244 245 246 247 248 250 251 253 254 256 258 259 261 264 266 269 271 274 275 276 276 277 279 279 278 278 277 277 277 276 277 277 278 279 279 280 280 281 283 284 286 287 288 289 290 290 291 290 290 291 289 287 288 289 287 288 292 296 299 302 300 300 303 304 301 300 302 301 299 296 291 287 284 284 287 290 293
233 234 235 235 236 237 238 239 240 241 243 244 245 247 248 250 251 253 255 257 258 260 262 263 266 268 270 272 273 273 274 274 275 275 275 275 275 274 274 275 276 277 278 279 280 280 281 282 283 284 285 286 287 288 288 288 289 288 287 287 286 283 282 284 285 285 289 294 297 299 299 297 297 301 299 297 300 302 300 297 294 292 289 288 288 288 289 291
235 236 237 237 238 239 240 241 242 243 244 245 247 248 250 252 253 255 257 259 260 261 263 265 267 269 270 271 271 271 271 271 272 272 272 272 273 273 274 275 276 277 278 279 280 281 282 282 283 284 285 286 286 286 286 286 286 285 283 282 282 281 280 280 280 283 288 292 293 294 294 292 294 298 295 294 297 299 298 295 292 290 289 289 290 289 290 291
238 238 239 240 241 242 243 243 245 246 247 248 249 251 252 254 255 257 258 260 261 262 264 266 267 268 269 269 269 269 268 269 271 271 271 272 273 274 275 276 277 278 279 279 280 281 282 283 283 284 284 284 284 284 284 285 285 284 282 280 280 280 280 279 279 282 286 288 288 289 290 290 293 295 292 292 294 295 294 292 289 288 288 289 291 291 292 293
240 241 242 242 243 244 245 246 247 248 249 250 251 253 254 255 256 258 259 260 261 263 264 265 266 267 267 268 268 268 269 270 271 272 273 274 275 276 277 277 278 278 279 280 280 281 282 282 282 283 283 283 283 282 283 284 284 283 282 281 280 280 280 280 281 283 286 287 287 288 289 290 292 293 291 292 294 294 292 290 288 287 288 289 290 292 294 297
243 244 244 245 245 246 247 248 249 250 251 252 253 254 255 256 257 258 259 260 261 262 263 264 265 267 267 269 270 269 270 271 272 274 275 276 276 277 278 278 278 278 279 279 279 280 280 280 281 281 281 281 281 281 281 282 282 282 282 281 281 280 280 281 282 285 287 287 287 288 288 289 292 292 291 293 294 293 291 288 287 289 290 291 292 293 296 299
244 245 246 246 247 248 248 249 250 251 252 253 253 254 255 256 257 258 259 260 262 263 264 266 267 268 269 270 271 271 271 273 274 275 276 276 277 278 278 278 278 278 278 278 279 279 278 279 280 280 281 281 281 280 281 281 281 282 281 280 280 280 281 282 284 286 287 287 287 288 288 288 290 290 290 291 291 290 288 286 288 290 292 293 294 296 298 301
245 246 246 247 248 248 249 250 250 251 252 253 254 255 255 256 257 258 260 261 263 264 265 267 268 269 269 271 271 272 273 274 274 275 276 276 276 276 277 277 277 277 278 278 279 279 279 279 280 280 281 281 281 280 281 281 282 282 281 280 279 279 280 282 285 286 287 287 287 288 288 288 289 289 289 290 289 287 285 285 288 290 291 293 295 297 299 299
246 247 247 248 249 249 250 251 251 252 253 254 255 256 257 258 259 260 261 263 264 265 266 268 268 269 270 271 272 272 273 273 273 273 274 274 275 275 276 276 277 277 277 278 278 279 279 280 280 280 280 280 280 281 282 283 283 282 281 281 280 279 280 283 285 287 288 288 289 289 288 289 290 289 290 290 287 286 286 286 287 288 290 293 294 294 294 293
246 247 248 248 249 250 251 252 253 253 254 255 256 257 258 259 260 261 262 264 265 266 267 268 269 269 270 270 270 270 271 271 271 271 272 273 274 275 275 277 277 277 277 277 278 278 279 279 279 280 280 280 281 282 283 284 283 284 283 282 282 283 284 285 286 288 290 289 289 289 288 291 293 291 290 289 287 288 287 286 286 287 289 290 289 288 285 284
246 247 248 249 250 251 252 253 253 254 255 256 257 258 259 260 261 262 263 264 265 266 266 266 267 268 268 267 268 269 269 269 270 271 271 272 273 274 275 276 276 276 277 277 277 277 278 278 279 279 280 281 283 285 285 284 284 284 283 283 284 286 287 287 288 290 289 289 288 288 289 292 294 293 292 289 288 289 288 286 286 286 287 287 284 282 279 277
246 247 248 249 250 251 252 253 253 254 255 256 257 258 259 260 260 261 262 263 263 264 264 265 265 266 266 267 268 268 269 269 270 271 271 272 272 273 273 274 274 275 276 276 276 277 278 277 278 279 280 283 285 286 285 284 285 284 283 285 286 287 287 288 290 289 287 287 287 287 288 290 292 293 293 291 290 290 288 287 286 286 286 284 282 280 279 278
247 248 249 249 250 251 251 252 253 254 255 256 256 257 258 259 259 260 260 261 262 263 264 265 265 266 268 268 268 269 269 270 270 270 270 271 271 272 273 273 274 274 275 276 277 277 277 277 278 278 280 284 285 284 283 284 285 284 285 286 286 286 287 289 291 288 285 285 286 287 288 289 291 293 293 292 293 294 292 288 286 285 283 282 282 282 281 279
248 248 249 249 250 251 251 252 253 254 254 255 256 257 258 259 259 260 260 261 262 264 264 265 266 268 268 269 269 269 269 269 269 269 270 271 271 272 272 273 274 275 276 277 277 277 277 277 277 278 281 283 282 281 282 284 285 285 286 285 285 286 287 290 289 286 285 284 285 286 286 287 290 292 293 293 295 295 292 289 286 284 281 280 280 280 280 280
247 248 248 249 249 250 251 252 253 254 255 256 256 257 258 259 260 260 261 262 263 263 264 266 266 267 268 269 269 269 269 269 269 269 270 271 271 272 273 274 275 276 277 277 277 276 277 277 278 280 283 282 280 280 282 283 284 285 286 285 286 286 287 288 287 286 286 285 285 285 285 286 289 290 291 292 293 292 290 289 288 287 284 281 278 278 279 280
246 247 247 248 249 250 250 251 252 253 255 256 257 258 258 259 260 261 261 262 262 263 264 266 266 267 268 269 269 269 269 269 269 270 270 271 271 273 274 275 276 277 278 278 277 277 277 277 279 282 282 280 279 280 281 282 283 284 284 285 285 285 286 286 284 284 285 286 288 287 287 288 289 290 291 291 291 290 288 289 289 289 287 285 281 279 279 280
245 245 246 247 248 249 249 250 251 253 254 255 256 257 258 259 260 261 261 262 262 264 265 265 266 266 267 267 268 268 268 268 269 270 271 272 273 274 275 276 277 278 279 278 278 280 278 277 279 280 279 279 279 280 280 280 281 282 283 283 283 285 285 283 282 284 285 287 289 290 291 292 291 292 294 293 292 290 289 289 289 289 289 288 287 285 283 283
245 245 245 246 247 248 248 249 250 252 253 255 256 257 258 259 260 261 262 262 262 262 264 265 266 266 266 266 267 268 269 270 270 271 272 273 274 275 275 276 278 278 277 278 280 279 278 278 279 279 278 278 278 278 279 279 280 280 280 282 284 285 283 282 283 285 287 288 290 291 291 292 294 296 296 297 296 293 292 292 291 291 290 290 291 291 291 291
245 245 245 246 246 247 248 249 250 251 252 254 255 256 258 259 260 261 262 262 262 261 263 265 266 266 266 266 267 269 270 272 273 273 274 275 275 276 276 277 277 276 277 277 277 276 277 279 279 277 277 277 277 277 278 279 278 278 279 282 284 282 281 283 285 286 287 288 289 290 290 290 293 295 296 298 296 293 293 293 292 292 292 292 293 294 295 295
245 245 246 246 247 247 248 249 250 251 252 254 255 257 258 259 260 260 261 262 262 260 261 263 266 266 266 267 268 270 271 272 274 275 276 277 277 278 277 276 276 276 276 275 275 276 278 278 276 276 276 277 277 277 278 277 277 278 280 281 281 281 282 284 285 285 285 286 287 289 289 291 293 293 293 293 291 290 291 292 292 292 292 292 293 293 293 293
245 245 246 246 247 248 248 249 251 252 254 255 256 257 258 258 259 260 262 263 263 262 261 261 263 265 266 267 268 270 272 273 275 276 277 278 278 278 277 276 275 275 274 274 276 278 277 275 276 276 276 277 277 277 277 276 278 280 281 280 280 282 283 283 284 284 283 285 285 286 288 292 293 293 293 291 289 289 290 291 291 291 291 292 292 292 291 290
245 245 246 246 247 248 249 250 251 253 255 256 257 257 258 259 260 261 263 265 264 264 263 262 262 263 265 267 269 270 272 274 276 277 277 277 276 276 275 274 274 273 274 275 276 277 276 275 276 277 277 277 278 277 277 278 280 281 280 281 282 282 282 282 281 281 281 283 284 285 289 293 294 294 293 291 290 291 291 290 290 291 291 291 290 290 290 289
245 245 246 247 247 248 249 250 252 254 255 256 257 257 258 259 260 261 264 265 265 264 264 264 263 263 265 267 269 271 273 275 277 276 275 274 273 273 273 273 273 273 274 275 276 276 276 276 276 276 277 277 277 277 278 279 280 280 280 280 280 280 279 279 278 279 281 284 286 289 293 294 295 295 294 293 294 294 294 294 295 295 294 292 291 291 291 291
246 246 246 247 248 249 250 252 253 255 256 257 257 258 258 258 259 261 262 263 263 264 264 265 266 266 267 269 270 272 274 276 275 273 272 271 272 272 272 272 272 273 274 274 275 275 275 275 275 275 275 275 275 276 277 277 277 277 277 277 277 277 277 277 277 280 283 286 289 294 296 295 294 293 293 295 296 296 296 298 299 298 297 296 296 297 297 296
246 245 246 248 249 250 252 253 255 256 258 258 258 258 258 258 259 260 260 260 262 264 265 267 268 269 271 272 273 273 273 272 270 269 270 270 271 272 272 271 271 272 272 273 273 273 273 272 273 273 273 273 274 275 275 275 275 276 275 275 275 275 275 277 279 282 284 287 292 296 295 292 291 290 292 294 295 296 297 298 297 297 297 297 298 298 298 297
249 248 248 249 251 252 253 254 256 257 258 258 259 259 258 257 257 257 258 260 262 263 266 268 270 272 273 273 273 271 269 267 266 268 268 269 270 271 271 270 270 270 271 271 270 270 271 271 271 271 271 272 273 273 274 275 276 276 275 275 275 276 278 280 282 285 288 290 292 293 290 289 288 289 291 292 293 294 294 294 293 293 294 294 293 293 293 292
250 250 251 251 252 253 254 255 256 257 258 259 260 259 258 256 255 256 258 260 262 263 266 268 270 272 272 271 269 267 266 265 267 267 266 267 269 269 268 268 269 269 269 269 267 267 268 270 272 271 271 272 271 272 273 274 275 276 277 278 278 280 281 284 287 289 291 291 289 288 287 286 288 290 291 291 291 291 290 290 290 290 290 290 289 289 288 288
247 249 252 253 253 254 254 254 255 256 257 259 258 257 255 255 256 257 258 259 261 263 265 266 267 268 268 268 266 264 265 265 266 265 265 267 267 266 265 266 266 266 266 266 266 267 268 269 271 272 272 272 272 273 274 275 276 277 279 279 280 282 283 287 291 290 288 286 285 284 285 286 290 292 291 290 289 288 288 288 288 288 287 287 286 286 285 285
245 249 252 253 253 253 252 252 253 253 254 254 255 255 254 255 258 259 257 258 259 261 262 263 264 264 265 265 264 263 264 264 264 265 266 267 266 265 265 264 263 264 265 266 267 269 270 270 269 270 272 274 276 277 277 278 279 280 281 281 282 284 285 287 288 285 284 283 283 283 283 286 291 292 291 290 288 287 287 286 286 285 285 284 284 284 284 284
247 250 252 253 253 252 251 251 250 249 249 250 252 255 256 257 260 259 258 259 260 258 259 260 261 262 263 263 263 263 263 263 264 265 266 266 265 265 265 265 266 267 268 269 271 273 274 275 274 273 274 276 278 279 280 280 281 282 283 283 284 285 284 283 282 281 281 281 283 284 284 287 290 289 289 288 288 287 286 286 285 284 284 283 283 283 283 283
246 247 247 248 250 251 251 251 250 250 251 252 252 256 260 261 260 260 259 259 261 262 262 262 261 263 263 263 263 263 263 264 265 265 265 265 265 266 267 267 268 269 270 271 273 276 279 281 281 279 278 278 278 279 280 281 281 281 282 282 283 282 279 278 278 279 279 279 283 286 285 287 288 288 289 287 286 286 285 284 284 283 283 283 282 282 282 282
240 241 240 240 243 247 250 252 252 252 252 254 255 257 259 260 258 259 259 260 262 263 262 263 263 263 263 263 263 263 262 263 263 263 264 265 266 268 267 266 266 267 269 271 273 277 280 281 281 281 280 279 278 278 279 279 278 278 279 279 278 276 274 274 275 277 278 278 282 284 284 285 286 288 288 286 285 284 283 282 282 281 281 281 281 281 281 281
234 237 237 236 237 240 243 245 246 246 246 248 253 256 255 255 256 258 260 261 260 256 255 258 260 260 260 260 261 259 257 258 259 260 262 263 266 269 267 265 266 267 269 272 274 276 278 278 279 279 279 279 278 277 276 276 276 275 275 274 273 272 272 273 273 276 277 277 280 282 283 284 286 286 286 283 282 282 281 281 281 280 280 280 279 279 278 279
230 234 235 236 238 238 238 238 240 241 241 244 250 254 253 253 255 257 257 255 252 248 248 251 252 253 255 257 256 254 253 255 256 258 261 262 265 268 268 268 269 270 271 273 274 275 276 276 277 278 277 277 277 277 276 276 275 273 272 271 272 271 271 272 273 275 276 276 278 281 282 284 286 285 283 280 280 280 280 280 280 280 280 280 279 278 278 278
231 232 235 236 238 239 237 236 235 237 239 242 245 247 248 248 249 248 246 244 242 242 244 246 247 250 252 253 252 252 252 254 256 258 260 263 265 267 268 270 271 271 271 271 271 272 273 274 275 276 275 274 274 275 275 274 273 272 272 273 274 273 273 272 272 273 275 275 277 280 281 283 285 283 281 279 280 280 280 280 281 280 279 279 279 279 279 279
238 236 238 238 237 236 235 232 232 235 239 241 241 240 239 239 238 237 237 237 239 241 243 245 246 249 250 251 252 253 254 255 257 259 260 263 265 266 268 269 270 270 270 270 270 270 271 272 273 273 274 274 274 274 273 272 272 273 273 274 275 275 274 273 273 276 277 276 277 278 278 282 286 284 281 281 282 282 282 282 281 280 279 279 279 279 279 279
242 241 240 238 235 234 233 232 233 236 240 241 239 236 234 233 233 233 235 237 239 241 243 244 246 248 250 252 253 255 256 258 259 260 262 263 265 266 267 268 268 269 269 269 270 271 271 272 272 273 274 275 274 274 273 273 273 273 274 277 277 276 275 275 276 279 278 275 277 275 275 281 286 283 282 283 283 283 282 281 279 278 279 279 279 279 279 279
238 238 237 235 234 233 233 234 235 238 240 239 235 233 233 233 233 234 236 239 241 242 244 246 247 250 252 254 255 256 258 259 260 262 264 265 266 267 268 268 269 269 269 270 271 272 272 273 273 274 274 273 273 274 274 274 276 277 278 279 277 276 276 275 275 276 274 274 276 274 274 281 285 283 283 284 282 282 280 278 277 278 279 279 279 279 279 278
234 234 234 234 234 234 234 235 236 236 234 231 229 230 232 234 235 236 238 240 243 245 248 250 251 253 255 256 257 258 260 261 263 264 265 266 267 268 268 269 270 270 271 272 272 273 273 273 274 274 273 273 274 274 275 277 278 277 277 276 275 274 274 272 273 273 272 274 275 273 274 281 284 283 283 281 280 280 280 279 279 279 278 278 278 278 277 276
230 230 231 231 232 233 233 233 233 232 229 226 226 229 232 234 236 238 240 242 246 249 251 253 255 257 258 259 261 262 263 263 264 265 266 267 267 268 268 269 270 271 272 273 273 273 273 273 274 274 274 275 276 276 277 277 276 275 275 276 276 275 274 273 274 272 272 274 274 274 277 281 282 282 281 279 279 279 278 279 279 279 278 276 275 274 274 274
227 227 228 230 232 233 232 230 230 229 228 228 229 230 233 236 237 239 242 245 249 252 255 257 259 260 262 263 264 264 264 265 265 265 266 266 266 267 267 268 270 271 272 273 273 273 273 274 274 275 275 276 277 276 276 276 274 274 275 276 277 277 276 275 275 273 273 274 275 277 280 279 279 281 280 279 279 278 277 278 279 278 277 275 273 273 274 276
227 227 228 229 231 232 232 231 231 231 231 233 234 235 236 239 241 243 245 248 252 256 258 260 261 263 264 265 265 264 264 264 264 265 265 265 266 267 268 269 269 270 271 272 273 273 274 274 275 275 275 276 276 275 275 275 275 275 275 277 277 276 275 275 274 273 274 274 275 279 279 277 279 280 280 279 279 277 277 276 275 275 275 276 276 276 276 276
232 231 231 232 232 232 231 232 234 235 236 238 240 241 242 244 247 249 251 254 256 258 260 261 262 264 265 264 263 263 263 263 264 265 266 267 268 269 269 269 270 271 272 272 273 274 273 274 275 275 274 275 274 273 274 274 273 274 275 277 278 276 274 273 272 272 273 274 276 278 277 276 277 278 277 278 278 277 276 275 274 275 276 277 277 276 276 276
239 237 237 238 238 238 237 237 239 242 243 244 245 246 247 249 251 254 257 258 259 260 262 262 262 263 262 262 262 262 263 264 265 266 268 268 268 269 270 271 272 272 273 273 273 273 273 274 275 274 273 273 273 273 274 273 273 273 275 277 277 274 272 272 273 275 276 276 277 278 276 276 277 277 276 277 276 275 275 275 277 278 277 277 276 276 276 277
246 245 245 245 244 244 244 245 247 249 250 250 250 251 252 253 255 258 260 260 261 261 262 262 262 261 261 261 261 263 264 265 266 267 268 269 269 270 271 271 272 273 273 274 274 274 274 274 274 274 273 272 273 274 272 273 273 272 274 278 276 273 273 274 276 277 276 276 277 277 275 276 278 278 276 274 273 274 276 277 278 277 276 276 277 277 278 278
253 253 253 252 251 251 251 252 253 255 256 256 256 257 258 259 259 260 261 261 261 261 262 262 262 261 261 262 263 265 266 266 267 268 268 268 269 270 270 271 273 274 275 275 274 274 273 272 273 273 271 272 274 273 271 272 271 271 277 281 277 274 276 277 276 275 274 275 276 275 275 278 279 276 273 273 275 276 277 277 276 275 276 277 277 278 278 278
256 257 258 258 257 255 256 257 257 258 260 261 261 261 261 261 261 261 262 262 262 262 262 261 261 260 261 262 263 265 266 266 267 268 267 268 269 270 271 273 274 274 275 274 274 274 273 272 272 271 270 271 272 270 271 270 269 274 283 284 278 277 277 276 274 274 274 275 275 276 278 279 278 274 274 275 276 276 276 275 276 276 277 277 277 277 278 278
Height
5862 5863 5864 5864 5865 5866 5867 5868 5868 5869 5870 5870 5871 5871 5872 5872 5873 5873 5874 5874 5875 5875 5875 5875 5876 5876 5876 5876 5876 5876 5876 5877 5877 5877 5877 5877 5877 5876 5876 5876 5876 5876 5876 5876 5876 5875 5875 5875 5874 5874 5874 5874 5873 5873 5872 5872 5872 5872 5871 5870 5870 5869 5868 5868 5867 5867 5866 5865 5865 5864 5864 5864 5864 5864 5863 5863 5861 5860 5859 5857 5856 5854 5853 5853 5853 5852 5851 5850
5860 5861 5861 5862 5863 5864 5865 5866 5866 5867 5868 5868 5869 5870 5870 5871 5871 5872 5872 5872 5873 5873 5873 5873 5874 5874 5874 5874 5874 5875 5875 5875 5875 5875 5875 5875 5875 5875 5875 5874 5874 5874 5874 5874 5874 5874 5873 5873 5873 5872 5872 5872 5871 5871 5870 5870 5870 5870 5869 5868 5867 5867 5866 5866 5865 5865 5864 5863 5862 5862 5862 5862 5862 5861 5861 5861 5859 5858 5857 5856 5855 5853 5852 5851 5850 5850 5849 5848
5857 5858 5859 5860 5861 5862 5863 5863 5864 5865 5866 5866 5867 5868 5868 5869 5869 5870 5870 5871 5871 5871 5871 5872 5872 5872 5872 5872 5873 5873 5873 5872 5873 5873 5873 5873 5872 5872 5872 5872 5872 5872 5871 5871 5872 5872 5871 5871 5871 5870 5870 5870 5869 5869 5868 5869 5868 5867 5867 5866 5865 5864 5863 5863 5863 5862 5862 5862 5861 5860 5860 5860 5859 5859 5859 5859 5858 5856 5855 5854 5853 5852 5850 5849 5847 5847 5847 5846
5855 5856 5857 5857 5858 5859 5860 5861 5862 5862 5863 5864 5865 5865 5866 5867 5867 5868 5868 5869 5869 5869 5869 5870 5870 5870 5870 5870 5871 5871 5870 5870 5870 5870 5870 5870 5870 5870 5870 5870 5870 5869 5869 5869 5869 5869 5869 5869 5868 5868 5868 5867 5867 5866 5866 5867 5866 5865 5864 5863 5862 5862 5860 5860 5861 5860 5860 5860 5859 5859 5858 5857 5856 5855 5856 5856 5855 5854 5854 5852 5851 5850 5849 5848 5845 5844 5844 5844
5852 5853 5854 5855 5856 5857 5857 5858 5859 5860 5861 5861 5862 5863 5864 5864 5865 5865 5866 5866 5866 5867 5867 5867 5868 5868 5868 5868 5868 5868 5868 5867 5867 5868 5868 5868 5868 5868 5867 5867 5867 5867 5867 5867 5867 5867 5867 5867 5866 5866 5866 5865 5865 5864 5864 5864 5863 5862 5861 5860 5860 5859 5858 5857 5858 5858 5857 5857 5857 5857 5857 5855 5854 5853 5853 5852 5852 5852 5852 5850 5849 5847 5846 5845 5844 5842 5842 5842
5849 5850 5851 5852 5853 5854 5855 5855 5856 5857 5858 5859 5860 5860 5861 5862 5862 5863 5863 5863 5864 5864 5864 5865 5865 5865 5866 5866 5866 5866 5866 5864 5865 5866 5865 5865 5865 5865 5865 5865 5865 5865 5864 5864 5864 5864 5864 5864 5864 5863 5863 5863 5862 5861 5861 5861 5860 5860 5858 5857 5857 5857 5856 5855 5855 5855 5854 5855 5855 5855 5854 5853 5852 5852 5850 5849 5849 5850 5850 5848 5846 5844 5843 5842 5841 5841 5841 5840
5846 5847 5848 5849 5850 5851 5851 5852 5853 5854 5855 5856 5857 5857 5858 5859 5859 5860 5860 5861 5861 5861 5862 5862 5862 5863 5863 5863 5863 5864 5863 5861 5862 5863 5862 5862 5863 5863 5863 5862 5862 5862 5862 5862 5862 5862 5861 5861 5861 5861 5860 5860 5859 5858 5858 5858 5858 5857 5856 5855 5855 5855 5854 5854 5853 5852 5852 5852 5852 5852 5852 5850 5849 5851 5849 5846 5847 5847 5846 5846 5843 5841 5838 5838 5839 5839 5839 5839
5842 5844 5845 5846 5847 5847 5848 5849 5850 5851 5852 5853 5854 5854 5855 5855 5856 5857 5857 5858 5858 5859 5859 5859 5859 5860 5860 5860 5860 5861 5860 5859 5859 5860 5860 5860 5860 5860 5860 5860 5860 5860 5859 5859 5859 5858 5858 5858 5858 5857 5857 5857 5857 5855 5855 5855 5855 5855 5854 5854 5853 5853 5853 5852 5851 5850 5850 5851 5850 5850 5850 5847 5847 5849 5846 5844 5845 5845 5844 5843 5841 5838 5835 5835 5835 5836 5836 5837
5839 5840 5841 5842 5843 5844 5845 5846 5847 5848 5849 5849 5850 5851 5852 5852 5853 5853 5854 5854 5855 5855 5856 5856 5856 5856 5857 5857 5858 5858 5857 5856 5857 5857 5857 5857 5857 5857 5857 5857 5857 5856 5856 5856 5855 5855 5855 5854 5854 5854 5854 5854 5853 5852 5852 5852 5852 5852 5852 5852 5851 5851 5851 5849 5849 5848 5849 5849 5847 5848 5848 5845 5845 5846 5844 5842 5843 5843 5842 5840 5838 5836 5834 5833 5832 5832 5833 5834
5836 5837 5838 5839 5840 5841 5842 5843 5843 5844 5845 5846 5847 5847 5848 5849 5849 5850 5850 5851 5851 5852 5852 5853 5853 5853 5854 5854 5855 5855 5854 5854 5854 5854 5854 5854 5854 5854 5854 5854 5853 5853 5852 5852 5852 5852 5851 5851 5850 5850 5850 5850 5850 5849 5849 5849 5849 5849 5849 5849 5849 5849 5848 5846 5846 5846 5846 5846 5844 5844 5845 5843 5842 5843 5841 5840 5841 5841 5839 5837 5834 5833 5832 5831 5830 5829 5830 5831
5832 5833 5834 5835 5836 5837 5838 5839 5840 5841 5842 5843 5843 5844 5845 5845 5846 5846 5847 5847 5848 5848 5849 5849 5850 5850 5851 5851 5852 5852 5851 5851 5851 5851 5851 5851 5850 5850 5850 5850 5849 5849 5849 5848 5848 5848 5848 5847 5847 5847 5847 5847 5847 5846 5846 5846 5846 5846 5846 5846 5845 5845 5845 5843 5842 5843 5843 5842 5840 5840 5842 5841 5840 5840 5839 5837 5838 5838 5836 5833 5831 5830 5830 5829 5828 5828 5828 5828
5828 5829 5830 5831 5832 5834 5834 5835 5836 5837 5838 5839 5840 5840 5841 5841 5842 5842 5843 5844 5844 5845 5845 5846 5846 5847 5847 5848 5848 5848 5848 5848 5847 5847 5847 5847 5847 5846 5846 5846 5845 5845 5845 5845 5845 5845 5844 5844 5844 5843 5843 5844 5844 5843 5843 5843 5843 5843 5842 5842 5842 5841 5841 5839 5839 5840 5839 5838 5837 5836 5837 5839 5838 5837 5836 5835 5835 5834 5833 5830 5827 5827 5827 5826 5826 5825 5825 5826
5824 5825 5826 5827 5829 5830 5830 5832 5832 5833 5834 5835 5836 5836 5837 5838 5838 5839 5839 5840 5840 5841 5841 5842 5842 5843 5844 5845 5845 5844 5844 5844 5844 5843 5843 5843 5842 5842 5842 5842 5842 5842 5841 5841 5841 5841 5840 5840 5840 5840 5840 5840 5840 5840 5839 5840 5840 5839 5838 5838 5838 5838 5838 5837 5836 5836 5836 5834 5833 5832 5832 5835 5837 5835 5833 5832 5831 5830 5829 5827 5825 5824 5824 5824 5824 5823 5823 5823
5819 5821 5822 5823 5824 5825 5826 5828 5829 5829 5830 5831 5832 5832 5833 5834 5834 5835 5836 5836 5837 5837 5837 5838 5838 5839 5840 5841 5841 5840 5840 5840 5840 5840 5839 5839 5838 5838 5838 5838 5838 5838 5838 5838 5837 5837 5836 5836 5836 5836 5836 5836 5836 5836 5836 5836 5836 5835 5834 5833 5833 5833 5834 5835 5833 5832 5832 5830 5829 5828 5827 5830 5833 5832 5830 5828 5827 5826 5826 5825 5823 5822 5822 5822 5822 5821 5821 5820
5815 5816 5818 5819 5820 5821 5822 5823 5824 5825 5826 5827 5827 5828 5829 5829 5830 5831 5831 5832 5833 5833 5833 5834 5834 5834 5836 5837 5837 5837 5837 5836 5836 5836 5836 5836 5835 5835 5835 5834 5834 5834 5834 5834 5833 5833 5832 5832 5832 5832 5832 5832 5832 5832 5832 5832 5832 5831 5829 5829 5828 5828 5830 5831 5830 5829 5827 5826 5825 5824 5822 5825 5828 5829 5828 5825 5823 5823 5822 5821 5821 5820 5820 5820 5819 5818 5817 5816
5810 5811 5813 5814 5815 5816 5818 5819 5820 5821 5821 5822 5823 5823 5824 5825 5826 5826 5827 5828 5828 5829 5829 5829 5830 5830 5831 5833 5833 5833 5833 5832 5832 5832 5832 5832 5831 5831 5831 5831 5830 5830 5830 5829 5829 5829 5829 5828 5828 5827 5827 5828 5828 5828 5828 5827 5828 5827 5824 5824 5824 5824 5825 5827 5828 5826 5824 5822 5821 5820 5819 5821 5823 5824 5824 5822 5820 5820 5819 5818 5818 5818 5817 5816 5815 5814 5813 5813
5805 5807 5808 5809 5810 5812 5813 5814 5815 5816 5817 5817 5818 5819 5819 5820 5821 5822 5823 5823 5823 5824 5824 5825 5826 5826 5827 5829 5829 5829 5828 5828 5828 5828 5828 5828 5828 5827 5827 5827 5826 5826 5825 5825 5825 5825 5824 5824 5824 5823 5824 5825 5825 5824 5822 5822 5823 5822 5820 5820 5820 5820 5820 5821 5824 5823 5820 5818 5817 5816 5816 5817 5818 5819 5819 5817 5817 5817 5816 5815 5815 5814 5813 5812 5811 5810 5810 5809
5801 5802 5803 5805 5806 5807 5808 5809 5810 5811 5812 5812 5813 5814 5815 5816 5817 5817 5818 5819 5819 5820 5820 5821 5821 5821 5823 5824 5824 5824 5824 5824 5824 5824 5824 5824 5823 5823 5823 5823 5822 5822 5822 5821 5821 5821 5820 5819 5819 5819 5821 5822 5822 5820 5817 5818 5818 5817 5816 5816 5815 5816 5816 5817 5818 5817 5815 5814 5813 5813 5813 5813 5814 5814 5813 5812 5812 5812 5813 5812 5811 5811 5810 5808 5808 5807 5806 5806
5796 5798 5799 5800 5801 5802 5803 5804 5805 5806 5807 5808 5809 5810 5810 5811 5812 5813 5814 5814 5815 5815 5815 5816 5817 5817 5818 5819 5819 5819 5819 5819 5820 5820 5820 5820 5819 5819 5819 5818 5818 5818 5818 5817 5817 5816 5815 5815 5814 5815 5818 5819 5817 5815 5814 5814 5813 5812 5812 5811 5811 5811 5812 5813 5813 5811 5809 5809 5810 5810 5809 5809 5810 5809 5808 5808 5807 5807 5807 5807 5807 5807 5807 5806 5805 5804 5803 5802
5791 5793 5794 5795 5796 5797 5798 5799 5801 5802 5802 5803 5804 5805 5806 5806 5807 5808 5809 5809 5810 5810 5810 5811 5812 5813 5813 5814 5814 5813 5814 5814 5815 5815 5816 5815 5815 5815 5814 5814 5814 5814 5814 5814 5812 5811 5811 5810 5810 5813 5815 5814 5812 5811 5810 5810 5809 5808 5808 5807 5807 5806 5807 5809 5807 5805 5804 5803 5805 5806 5805 5806 5805 5805 5805 5804 5803 5802 5802 5802 5802 5803 5802 5802 5802 5801 5800 5799
5786 5787 5788 5790 5791 5792 5793 5794 5795 5797 5798 5798 5799 5800 5801 5801 5801 5802 5804 5804 5805 5805 5806 5806 5807 5808 5809 5809 5808 5808 5809 5809 5810 5811 5811 5811 5811 5810 5810 5810 5810 5810 5810 5809 5807 5807 5807 5806 5807 5810 5810 5808 5807 5807 5806 5806 5805 5804 5804 5803 5803 5803 5803 5804 5802 5801 5800 5799 5800 5800 5800 5801 5800 5800 5801 5800 5800 5799 5798 5798 5798 5797 5797 5798 5798 5798 5797 5797
5780 5782 5783 5784 5785 5787 5788 5789 5790 5792 5793 5793 5794 5795 5796 5796 5796 5797 5798 5799 5800 5800 5801 5801 5802 5803 5805 5803 5803 5803 5803 5804 5806 5806 5806 5806 5806 5806 5805 5805 5805 5805 5805 5803 5803 5803 5802 5801 5804 5805 5804 5802 5802 5802 5802 5801 5801 5800 5800 5799 5799 5800 5799 5798 5797 5797 5796 5795 5795 5795 5795 5795 5795 5795 5796 5796 5795 5794 5794 5794 5793 5793 5792 5792 5793 5793 5793 5793
5775 5776 5777 5778 5780 5781 5782 5784 5785 5786 5787 5788 5789 5790 5790 5791 5791 5792 5792 5792 5794 5796 5796 5796 5797 5798 5799 5798 5798 5797 5797 5799 5801 5801 5802 5801 5801 5801 5800 5800 5801 5800 5800 5799 5799 5798 5796 5797 5800 5799 5797 5797 5797 5797 5797 5796 5796 5796 5795 5794 5795 5796 5794 5792 5793 5792 5791 5791 5790 5790 5790 5790 5790 5790 5791 5791 5790 5789 5789 5789 5788 5788 5788 5787 5787 5787 5787 5788
5769 5770 5771 5772 5774 5775 5777 5778 5780 5781 5782 5783 5784 5785 5785 5786 5786 5786 5786 5786 5787 5791 5792 5791 5792 5792 5793 5793 5793 5793 5793 5794 5795 5796 5797 5796 5796 5795 5795 5795 5795 5795 5795 5795 5794 5792 5792 5794 5794 5793 5792 5792 5792 5792 5792 5792 5791 5791 5791 5791 5791 5790 5788 5788 5788 5787 5786 5786 5786 5785 5785 5786 5787 5786 5787 5787 5786 5784 5784 5784 5784 5784 5783 5783 5782 5782 5781 5781
5763 5764 5765 5766 5768 5770 5771 5772 5774 5775 5776 5778 5778 5780 5780 5780 5781 5781 5781 5779 5780 5786 5788 5786 5786 5786 5787 5787 5787 5788 5788 5788 5790 5790 5791 5790 5790 5790 5790 5790 5789 5789 5790 5789 5788 5788 5790 5790 5788 5787 5787 5787 5787 5787 5787 5786 5785 5786 5787 5787 5786 5785 5784 5784 5783 5783 5782 5781 5782 5781 5779 5780 5782 5783 5783 5784 5782 5780 5780 5780 5780 5779 5778 5778 5778 5777 5776 5775
5756 5758 5759 5760 5762 5764 5765 5766 5768 5770 5771 5772 5773 5774 5774 5775 5775 5775 5776 5773 5773 5778 5782 5782 5781 5779 5780 5781 5782 5783 5783 5784 5785 5785 5784 5784 5784 5784 5783 5784 5784 5784 5784 5783 5783 5784 5785 5784 5783 5783 5783 5782 5782 5782 5782 5781 5781 5783 5783 5782 5781 5781 5781 5780 5779 5779 5778 5777 5778 5777 5776 5776 5776 5777 5778 5778 5777 5776 5776 5775 5775 5775 5774 5774 5773 5772 5771 5771
5750 5751 5753 5754 5756 5758 5759 5761 5762 5764 5766 5767 5768 5768 5769 5770 5770 5770 5771 5767 5766 5771 5773 5775 5776 5775 5775 5776 5778 5779 5778 5779 5780 5779 5779 5779 5779 5778 5778 5778 5779 5778 5778 5778 5779 5780 5779 5779 5779 5779 5778 5778 5778 5777 5777 5777 5778 5779 5778 5777 5776 5777 5776 5776 5776 5775 5774 5774 5772 5773 5774 5773 5771 5771 5772 5771 5771 5771 5770 5770 5770 5770 5769 5769 5768 5767 5766 5765
5743 5745 5746 5748 5750 5751 5753 5755 5757 5758 5760 5761 5761 5762 5763 5764 5764 5765 5766 5762 5760 5763 5765 5766 5768 5770 5771 5772 5773 5774 5773 5773 5774 5773 5774 5773 5773 5774 5773 5774 5774 5773 5774 5774 5774 5774 5774 5774 5774 5774 5774 5774 5774 5773 5773 5774 5774 5774 5774 5773 5772 5772 5772 5772 5771 5770 5770 5769 5767 5769 5772 5768 5766 5765 5763 5763 5764 5764 5763 5763 5763 5763 5762 5761 5760 5760 5759 5758
5736 5738 5740 5742 5743 5745 5747 5749 5751 5753 5754 5755 5755 5756 5757 5758 5758 5759 5759 5756 5754 5755 5757 5759 5761 5764 5766 5767 5768 5768 5768 5768 5768 5768 5768 5768 5768 5769 5769 5769 5769 5769 5769 5769 5769 5769 5769 5769 5770 5770 5771 5770 5770 5770 5770 5770 5770 5770 5770 5769 5769 5768 5768 5768 5767 5766 5766 5764 5763 5766 5767 5763 5761 5759 5756 5756 5757 5756 5755 5755 5755 5754 5753 5752 5751 5751 5750 5749
5729 5731 5734 5735 5737 5739 5741 5744 5746 5747 5748 5748 5748 5749 5750 5751 5753 5753 5750 5750 5750 5750 5751 5753 5755 5757 5760 5761 5761 5762 5762 5762 5762 5762 5763 5763 5764 5764 5764 5764 5764 5764 5764 5765 5765 5765 5764 5764 5765 5766 5766 5766 5766 5767 5767 5766 5766 5767 5766 5766 5765 5764 5764 5763 5763 5762 5761 5760 5760 5762 5761 5758 5755 5754 5752 5750 5751 5750 5749 5749 5748 5747 5746 5745 5744 5743 5742 5741
5723 5725 5727 5729 5731 5733 5735 5737 5739 5740 5740 5741 5741 5742 5743 5744 5746 5744 5742 5744 5746 5745 5746 5747 5749 5751 5753 5754 5754 5755 5756 5756 5757 5758 5758 5758 5759 5759 5759 5759 5759 5759 5760 5760 5760 5760 5760 5760 5761 5762 5762 5762 5763 5763 5763 5763 5763 5762 5762 5761 5760 5759 5759 5758 5758 5758 5757 5756 5756 5755 5754 5752 5750 5750 5749 5746 5745 5745 5744 5743 5742 5741 5741 5740 5739 5738 5737 5735
5717 5718 5720 5722 5724 5726 5727 5731 5732 5732 5733 5734 5734 5734 5736 5736 5736 5736 5737 5740 5740 5740 5741 5742 5743 5745 5746 5747 5748 5748 5749 5750 5751 5752 5752 5753 5754 5754 5755 5754 5754 5754 5754 5755 5755 5755 5755 5756 5756 5757 5758 5758 5758 5759 5759 5759 5758 5758 5757 5756 5755 5754 5753 5752 5753 5753 5752 5751 5750 5749 5747 5746 5745 5746 5745 5742 5741 5739 5739 5738 5737 5737 5736 5735 5734 5733 5731 5730
5711 5712 5713 5715 5717 5718 5720 5724 5725 5725 5727 5727 5726 5726 5728 5727 5727 5730 5733 5734 5735 5734 5736 5737 5737 5738 5739 5740 5742 5742 5744 5745 5745 5746 5747 5748 5749 5749 5749 5749 5750 5749 5749 5750 5750 5750 5751 5752 5752 5752 5752 5753 5753 5754 5753 5753 5753 5752 5752 5751 5750 5749 5746 5746 5748 5746 5745 5745 5744 5743 5741 5740 5741 5741 5739 5738 5735 5733 5733 5733 5732 5731 5730 5729 5728 5726 5725 5724
5706 5707 5708 5709 5711 5712 5715 5717 5718 5720 5721 5720 5718 5718 5719 5719 5721 5725 5726 5728 5730 5730 5730 5730 5731 5732 5733 5734 5735 5736 5738 5738 5739 5740 5741 5742 5743 5743 5743 5744 5744 5744 5744 5744 5744 5745 5746 5747 5747 5747 5747 5747 5747 5748 5747 5746 5746 5745 5745 5744 5743 5743 5741 5740 5741 5738 5737 5738 5738 5737 5735 5735 5737 5735 5733 5731 5728 5727 5727 5726 5725 5725 5724 5722 5721 5720 5719 5718
5701 5702 5703 5704 5704 5706 5708 5709 5711 5714 5714 5713 5712 5710 5711 5714 5717 5719 5721 5723 5724 5724 5724 5724 5725 5725 5726 5728 5729 5730 5731 5732 5733 5734 5734 5735 5736 5737 5738 5738 5738 5738 5738 5738 5738 5738 5738 5739 5741 5741 5742 5742 5741 5741 5740 5740 5739 5738 5738 5737 5737 5737 5735 5732 5732 5731 5730 5730 5731 5730 5728 5729 5732 5730 5727 5724 5722 5721 5720 5719 5718 5717 5716 5715 5714 5713 5712 5711
5695 5696 5697 5697 5698 5699 5701 5702 5705 5707 5706 5706 5705 5703 5706 5710 5711 5712 5715 5717 5716 5717 5717 5718 5719 5719 5720 5721 5723 5724 5725 5726 5727 5727 5728 5729 5730 5731 5732 5732 5732 5732 5732 5732 5732 5731 5731 5732 5734 5735 5735 5736 5735 5734 5734 5734 5733 5732 5733 5732 5732 5731 5728 5724 5724 5725 5724 5722 5723 5725 5722 5722 5725 5724 5722 5718 5716 5715 5713 5712 5711 5709 5709 5708 5707 5706 5705 5704
5688 5690 5690 5690 5691 5693 5694 5696 5698 5699 5698 5697 5697 5699 5702 5704 5705 5706 5708 5710 5710 5711 5711 5711 5712 5713 5714 5715 5717 5718 5719 5720 5720 5721 5722 5723 5723 5724 5726 5726 5727 5726 5727 5727 5726 5725 5725 5726 5727 5728 5728 5729 5729 5729 5729 5728 5728 5727 5728 5728 5726 5723 5721 5719 5717 5717 5717 5713 5715 5719 5717 5716 5717 5717 5717 5713 5710 5708 5706 5706 5705 5704 5703 5702 5701 5699 5698 5697
5681 5683 5684 5685 5686 5687 5689 5690 5691 5691 5690 5688 5691 5696 5698 5698 5700 5702 5702 5703 5704 5705 5705 5705 5706 5707 5709 5710 5711 5713 5713 5713 5714 5715 5716 5717 5717 5718 5720 5720 5721 5721 5721 5721 5719 5719 5720 5720 5721 5721 5720 5722 5723 5722 5722 5722 5722 5722 5721 5721 5719 5716 5714 5713 5710 5710 5709 5705 5706 5710 5712 5711 5710 5709 5710 5707 5705 5703 5700 5699 5699 5697 5697 5695 5694 5693 5692 5691
5673 5676 5677 5679 5681 5682 5683 5684 5685 5685 5684 5683 5686 5691 5693 5694 5696 5697 5697 5697 5698 5698 5699 5699 5701 5702 5703 5705 5706 5707 5707 5708 5709 5710 5710 5711 5711 5713 5714 5714 5715 5715 5715 5714 5713 5713 5713 5713 5714 5715 5714 5714 5715 5715 5715 5716 5715 5714 5713 5712 5712 5710 5708 5707 5704 5704 5702 5697 5697 5700 5703 5706 5705 5702 5700 5699 5699 5698 5694 5693 5692 5691 5690 5688 5687 5686 5685 5684
5667 5669 5670 5673 5675 5676 5677 5678 5679 5679 5679 5681 5684 5686 5688 5690 5691 5691 5690 5691 5691 5692 5693 5694 5695 5697 5698 5699 5700 5701 5701 5702 5704 5704 5704 5705 5706 5707 5708 5708 5709 5709 5709 5708 5708 5708 5707 5707 5708 5709 5708 5707 5708 5709 5709 5708 5706 5705 5705 5705 5705 5704 5702 5700 5697 5698 5696 5691 5690 5689 5691 5699 5702 5695 5690 5689 5692 5692 5689 5687 5686 5684 5682 5681 5680 5679 5677 5676
5661 5663 5664 5667 5669 5670 5671 5671 5672 5673 5674 5677 5680 5681 5683 5684 5684 5684 5683 5683 5684 5685 5687 5689 5690 5691 5693 5694 5695 5695 5695 5696 5697 5698 5698 5699 5700 5701 5702 5702 5702 5702 5702 5702 5702 5702 5701 5701 5702 5702 5701 5700 5701 5702 5702 5700 5698 5698 5698 5699 5699 5697 5696 5692 5689 5692 5691 5685 5684 5681 5679 5689 5697 5689 5681 5681 5683 5684 5682 5681 5679 5675 5674 5673 5672 5672 5670 5668
5655 5657 5658 5659 5661 5662 5662 5663 5664 5666 5668 5672 5674 5675 5675 5676 5678 5678 5676 5676 5678 5680 5681 5683 5685 5686 5687 5688 5689 5689 5688 5689 5690 5691 5692 5693 5694 5695 5695 5695 5695 5695 5695 5695 5695 5695 5694 5694 5694 5696 5695 5694 5693 5694 5694 5693 5692 5692 5692 5693 5694 5691 5689 5686 5682 5685 5683 5677 5677 5674 5668 5677 5688 5683 5677 5674 5674 5675 5675 5673 5670 5667 5667 5666 5665 5663 5661 5660
5648 5649 5650 5651 5652 5652 5653 5655 5657 5660 5663 5666 5667 5667 5667 5669 5671 5671 5671 5671 5672 5674 5675 5677 5679 5680 5681 5682 5682 5682 5681 5682 5683 5684 5685 5686 5687 5688 5688 5688 5689 5689 5688 5688 5689 5688 5687 5686 5686 5688 5688 5686 5685 5686 5686 5686 5686 5685 5686 5688 5687 5684 5683 5681 5676 5676 5673 5670 5671 5666 5658 5666 5676 5675 5673 5670 5666 5666 5665 5663 5661 5660 5661 5659 5657 5655 5653 5652
5641 5642 5643 5643 5644 5645 5648 5650 5652 5654 5657 5658 5658 5659 5659 5661 5664 5665 5665 5665 5666 5667 5669 5671 5672 5673 5674 5675 5674 5675 5675 5674 5677 5678 5678 5679 5680 5681 5681 5681 5681 5681 5681 5681 5681 5681 5680 5679 5678 5679 5679 5678 5678 5678 5678 5679 5680 5678 5678 5680 5679 5678 5676 5673 5671 5668 5662 5662 5665 5659 5652 5659 5665 5666 5667 5664 5660 5659 5656 5653 5653 5653 5653 5651 5649 5648 5646 5645
5634 5635 5635 5636 5637 5640 5643 5646 5647 5648 5650 5651 5651 5652 5652 5654 5658 5659 5659 5659 5659 5660 5661 5663 5665 5665 5666 5666 5667 5667 5668 5668 5670 5671 5672 5672 5672 5673 5674 5674 5674 5675 5674 5674 5674 5673 5672 5671 5671 5670 5669 5669 5670 5670 5670 5672 5671 5669 5670 5672 5671 5670 5668 5665 5664 5660 5653 5654 5656 5652 5649 5652 5657 5657 5657 5655 5654 5652 5648 5645 5645 5644 5644 5643 5642 5640 5638 5637
5626 5627 5629 5630 5631 5634 5638 5640 5640 5642 5644 5644 5644 5646 5647 5650 5653 5653 5652 5653 5653 5653 5653 5655 5657 5657 5658 5659 5659 5659 5661 5661 5661 5662 5664 5665 5665 5666 5667 5667 5668 5668 5667 5666 5666 5665 5664 5663 5663 5662 5660 5661 5662 5661 5661 5662 5662 5661 5662 5664 5663 5661 5660 5658 5653 5649 5647 5645 5645 5647 5646 5644 5648 5650 5647 5646 5646 5643 5640 5639 5637 5635 5635 5635 5634 5633 5632 5630
5618 5621 5624 5624 5624 5628 5632 5634 5635 5637 5637 5636 5636 5640 5642 5644 5645 5645 5646 5646 5646 5645 5645 5647 5650 5650 5651 5652 5651 5652 5654 5653 5653 5654 5656 5657 5658 5659 5660 5661 5661 5661 5661 5659 5658 5657 5656 5655 5656 5654 5652 5653 5653 5652 5653 5653 5652 5653 5654 5656 5657 5653 5651 5650 5644 5640 5641 5637 5635 5643 5642 5635 5640 5645 5639 5635 5635 5633 5632 5632 5629 5627 5627 5627 5626 5625 5624 5622
5611 5615 5617 5616 5617 5622 5626 5628 5629 5628 5628 5628 5629 5633 5636 5637 5638 5638 5639 5638 5637 5637 5637 5640 5643 5644 5644 5644 5643 5645 5646 5646 5646 5647 5648 5650 5651 5651 5652 5653 5653 5654 5654 5651 5650 5650 5647 5647 5649 5647 5644 5645 5644 5644 5645 5644 5643 5645 5647 5650 5650 5646 5642 5640 5636 5634 5635 5630 5629 5635 5633 5628 5634 5638 5631 5627 5625 5623 5622 5621 5620 5621 5620 5619 5617 5616 5614 5613
5604 5607 5608 5608 5611 5616 5619 5620 5619 5618 5619 5620 5622 5626 5630 5631 5631 5631 5630 5628 5629 5631 5630 5633 5637 5638 5636 5636 5636 5638 5640 5640 5639 5641 5641 5642 5643 5643 5644 5645 5645 5646 5646 5644 5643 5642 5639 5638 5640 5639 5637 5637 5636 5636 5636 5635 5634 5636 5640 5644 5643 5638 5633 5630 5629 5630 5628 5622 5623 5625 5620 5619 5627 5629 5624 5620 5616 5612 5612 5613 5613 5613 5611 5609 5607 5606 5606 5605
5595 5598 5599 5600 5604 5608 5609 5610 5609 5609 5611 5612 5615 5621 5623 5622 5623 5622 5620 5620 5622 5624 5623 5626 5630 5629 5628 5628 5629 5632 5634 5632 5631 5633 5634 5633 5634 5636 5637 5637 5638 5638 5638 5637 5635 5634 5632 5630 5630 5631 5629 5628 5629 5629 5627 5626 5625 5626 5633 5637 5633 5627 5626 5626 5625 5625 5619 5613 5615 5614 5608 5610 5620 5620 5613 5610 5607 5605 5606 5607 5606 5604 5601 5600 5599 5598 5597 5596
5585 5587 5589 5591 5594 5598 5599 5600 5600 5600 5601 5604 5610 5615 5613 5612 5614 5613 5610 5612 5614 5615 5616 5619 5621 5620 5619 5621 5623 5625 5626 5623 5623 5625 5625 5624 5626 5628 5629 5630 5631 5630 5630 5630 5627 5626 5625 5622 5622 5622 5619 5619 5623 5621 5617 5618 5616 5616 5626 5630 5623 5619 5621 5622 5619 5615 5611 5607 5606 5603 5600 5604 5612 5609 5602 5601 5601 5600 5600 5599 5597 5595 5594 5593 5592 5591 5589 5587
5577 5578 5580 5581 5584 5587 5589 5591 5591 5591 5595 5599 5603 5604 5602 5603 5605 5603 5603 5605 5607 5608 5609 5611 5612 5611 5612 5614 5616 5618 5617 5615 5615 5616 5616 5617 5619 5620 5621 5622 5623 5623 5622 5621 5620 5618 5617 5615 5614 5613 5609 5610 5614 5612 5609 5609 5605 5608 5620 5623 5616 5613 5614 5611 5608 5606 5604 5600 5596 5594 5595 5598 5599 5595 5594 5596 5596 5593 5591 5590 5588 5587 5587 5585 5584 5583 5580 5578